Satellite: DTUSAT-2
Catalog number: 40030
Epoch time: 14299.40713765
Element set: 371
Inclination: 097.9648 deg
RA of node: 194.1672 deg
Eccentricity: 0.0011269
Arg of perigee: 216.6603 deg
Mean anomaly: 143.3845 deg
Mean motion: 14.85327187 rev/day
Decay rate: 3.705e-05 rev/day^2
Epoch rev: 1906
Checksum: 308
Satellite: ANTELSAT
Catalog number: 40034
Epoch time: 14299.24193441
Element set: 380
Inclination: 097.9655 deg
RA of node: 191.2373 deg
Eccentricity: 0.0061561
Arg of perigee: 147.5753 deg
Mean anomaly: 212.9261 deg
Mean motion: 14.71569916 rev/day
Decay rate: 2.714e-05 rev/day^2
Epoch rev: 1887
Checksum: 311
/EX
SB KEPS @ AMSAT $ORB14299.W
Orbital Elements 14299.WEATHER
HR AMSAT ORBITAL ELEMENTS FOR WEATHER SATELLITES
FROM WA5QGD FORT WORTH,TX October 26, 2014
BID: ORB14299.W
TO ALL RADIO AMATEURS BT
Satellite: MET-2/21
Catalog number: 22782
Epoch time: 14298.96281968
Element set: 209
Inclination: 082.5502 deg
RA of node: 069.5355 deg
Eccentricity: 0.0021243
Arg of perigee: 256.7044 deg
Mean anomaly: 242.9816 deg
Mean motion: 13.83748156 rev/day
Decay rate: 1.43e-06 rev/day^2
Epoch rev: 6820
Checksum: 317
Satellite: OKEAN-4
Catalog number: 23317
Epoch time: 14298.82959941
Element set: 691
Inclination: 082.5364 deg
RA of node: 305.4232 deg
Eccentricity: 0.0021041
Arg of perigee: 031.3498 deg
Mean anomaly: 128.1767 deg
Mean motion: 14.85826942 rev/day
Decay rate: 3.019e-05 rev/day^2
Epoch rev: 8250
Checksum: 308
Satellite: NOAA-14
Catalog number: 23455
Epoch time: 14299.42179103
Element set: 954
Inclination: 098.7713 deg
RA of node: 020.4840 deg
Eccentricity: 0.0009724
Arg of perigee: 032.5670 deg
Mean anomaly: 106.7112 deg
Mean motion: 14.13995521 rev/day
Decay rate: 4.1e-07 rev/day^2
Epoch rev: 2249
Checksum: 283
Satellite: NOAA-15
Catalog number: 25338
Epoch time: 14299.46486794
Element set: 394
Inclination: 098.7620 deg
RA of node: 293.1305 deg
Eccentricity: 0.0011675
Arg of perigee: 124.9213 deg
Mean anomaly: 037.6169 deg
Mean motion: 14.25491791 rev/day
Decay rate: 3.07e-06 rev/day^2
Epoch rev: 85554
Checksum: 335
Satellite: RESURS
Catalog number: 25394
Epoch time: 14299.01641002
Element set: 793
Inclination: 098.4319 deg
RA of node: 257.9899 deg
Eccentricity: 0.0000905
Arg of perigee: 182.1932 deg
Mean anomaly: 218.7680 deg
Mean motion: 14.24407705 rev/day
Decay rate: 1.45e-06 rev/day^2
Epoch rev: 84694
Checksum: 320
Satellite: FENGYUN1
Catalog number: 25730
Epoch time: 14299.43425853
Element set: 282
Inclination: 098.9230 deg
RA of node: 259.7985 deg
Eccentricity: 0.0023265
Arg of perigee: 096.0688 deg
Mean anomaly: 021.9171 deg
Mean motion: 14.12302314 rev/day
Decay rate: 4.009e-05 rev/day^2
Epoch rev: 79604
Checksum: 309
Satellite: OKEAN-0
Catalog number: 25860
Epoch time: 14298.85740698
Element set: 400
Inclination: 098.0614 deg
RA of node: 262.0818 deg
Eccentricity: 0.0001467
Arg of perigee: 083.2264 deg
Mean anomaly: 299.0711 deg
Mean motion: 14.75490429 rev/day
Decay rate: 1.869e-05 rev/day^2
Epoch rev: 82142
Checksum: 318
Satellite: NOAA-16
Catalog number: 26536
Epoch time: 14299.43198260
Element set: 892
Inclination: 098.9755 deg
RA of node: 000.2652 deg
Eccentricity: 0.0010989
Arg of perigee: 168.7742 deg
Mean anomaly: 191.3676 deg
Mean motion: 14.13046718 rev/day
Decay rate: 1.78e-06 rev/day^2
Epoch rev: 72664
Checksum: 345
Satellite: NOAA-17
Catalog number: 27453
Epoch time: 14299.44740456
Element set: 781
Inclination: 098.3226 deg
RA of node: 292.3004 deg
Eccentricity: 0.0012626
Arg of perigee: 145.0718 deg
Mean anomaly: 215.1293 deg
Mean motion: 14.24799257 rev/day
Decay rate: 3.38e-06 rev/day^2
Epoch rev: 64137
Checksum: 315
Satellite: NOAA-18
Catalog number: 28654
Epoch time: 14299.48131771
Element set: 306
Inclination: 099.1638 deg
RA of node: 281.7140 deg
Eccentricity: 0.0013409
Arg of perigee: 254.4767 deg
Mean anomaly: 214.6413 deg
Mean motion: 14.12085500 rev/day
Decay rate: 1.72e-06 rev/day^2
Epoch rev: 48609
Checksum: 305
Satellite: NOAA-19
Catalog number: 33591
Epoch time: 14299.47360563
Element set: 438
Inclination: 098.9594 deg
RA of node: 244.1990 deg
Eccentricity: 0.0015049
Arg of perigee: 108.3138 deg
Mean anomaly: 029.3988 deg
Mean motion: 14.11788920 rev/day
Decay rate: 4.18e-06 rev/day^2
Epoch rev: 29451
Checksum: 345
/EX
SB KEPS @ AMSAT $ORB14299.M
Orbital Elements 14299.MISC
HR AMSAT ORBITAL ELEMENTS FOR MANNED AND MISCELLANEOUS SATELLITES
FROM WA5QGD FORT WORTH,TX October 26, 2014
BID: ORB14299.M
TO ALL RADIO AMATEURS BT
Satellite: HUBBLE
Catalog number: 20580
Epoch time: 14299.17896324
Element set: 143
Inclination: 028.4709 deg
RA of node: 255.7351 deg
Eccentricity: 0.0002929
Arg of perigee: 246.4785 deg
Mean anomaly: 240.5179 deg
Mean motion: 15.06006882 rev/day
Decay rate: 5.074e-05 rev/day^2
Epoch rev: 14448
Checksum: 313
Satellite: ISS
Catalog number: 25544
Epoch time: 14299.52559916
Element set: 306
Inclination: 051.6452 deg
RA of node: 168.5399 deg
Eccentricity: 0.0002517
Arg of perigee: 306.8314 deg
Mean anomaly: 123.9571 deg
Mean motion: 15.50895423 rev/day
Decay rate: 1.8781e-04 rev/day^2
Epoch rev: 91170
Checksum: 320
Satellite: CO-58
Catalog number: 28895
Epoch time: 14298.52207623
Element set: 907
Inclination: 097.8252 deg
RA of node: 133.5891 deg
Eccentricity: 0.0016374
Arg of perigee: 322.4143 deg
Mean anomaly: 037.5914 deg
Mean motion: 14.62124568 rev/day
Decay rate: 2.108e-05 rev/day^2
Epoch rev: 47929
Checksum: 334
Satellite: FALCON
Catalog number: 30776
Epoch time: 14298.69061726
Element set: 989
Inclination: 035.4296 deg
RA of node: 024.7838 deg
Eccentricity: 0.0001448
Arg of perigee: 018.6966 deg
Mean anomaly: 138.8992 deg
Mean motion: 15.18290509 rev/day
Decay rate: 1.5579e-04 rev/day^2
Epoch rev: 42056
Checksum: 355
Satellite: MAST
Catalog number: 31126
Epoch time: 14299.46191528
Element set: 188
Inclination: 097.9307 deg
RA of node: 273.6290 deg
Eccentricity: 0.0090407
Arg of perigee: 305.3354 deg
Mean anomaly: 171.2510 deg
Mean motion: 14.55515966 rev/day
Decay rate: 1.839e-05 rev/day^2
Epoch rev: 39948
Checksum: 324
Satellite: CAPE1
Catalog number: 31130
Epoch time: 14298.63768126
Element set: 193
Inclination: 097.9520 deg
RA of node: 269.6673 deg
Eccentricity: 0.0097605
Arg of perigee: 326.9189 deg
Mean anomaly: 032.5927 deg
Mean motion: 14.54748847 rev/day
Decay rate: 3.427e-05 rev/day^2
Epoch rev: 39877
Checksum: 359
Satellite: COMPASS
Catalog number: 32787
Epoch time: 14299.14197564
Element set: 83
Inclination: 097.6854 deg
RA of node: 348.8661 deg
Eccentricity: 0.0015138
Arg of perigee: 107.7936 deg
Mean anomaly: 252.4935 deg
Mean motion: 14.88666808 rev/day
Decay rate: 6.583e-05 rev/day^2
Epoch rev: 35166
Checksum: 362
Satellite: AAUSAT2
Catalog number: 32788
Epoch time: 14299.21540683
Element set: 71
Inclination: 097.6866 deg
RA of node: 350.0901 deg
Eccentricity: 0.0014634
Arg of perigee: 105.8168 deg
Mean anomaly: 254.4664 deg
Mean motion: 14.89460248 rev/day
Decay rate: 7.408e-05 rev/day^2
Epoch rev: 35174
Checksum: 323
Satellite: DO-64
Catalog number: 32789
Epoch time: 14299.14812631
Element set: 115
Inclination: 097.7064 deg
RA of node: 357.8532 deg
Eccentricity: 0.0012891
Arg of perigee: 090.0932 deg
Mean anomaly: 322.5098 deg
Mean motion: 14.95048537 rev/day
Decay rate: 1.2648e-04 rev/day^2
Epoch rev: 35205
Checksum: 326
Satellite: CO-66
Catalog number: 32791
Epoch time: 14298.68348784
Element set: 64
Inclination: 097.6853 deg
RA of node: 346.9025 deg
Eccentricity: 0.0015842
Arg of perigee: 113.1749 deg
Mean anomaly: 247.1138 deg
Mean motion: 14.87168478 rev/day
Decay rate: 5.866e-05 rev/day^2
Epoch rev: 35144
Checksum: 360
Satellite: RS-30
Catalog number: 32953
Epoch time: 14299.50718654
Element set: 413
Inclination: 082.4993 deg
RA of node: 119.5667 deg
Eccentricity: 0.0018492
Arg of perigee: 228.6510 deg
Mean anomaly: 144.9521 deg
Mean motion: 12.43051903 rev/day
Decay rate: 4.6e-07 rev/day^2
Epoch rev: 29157
Checksum: 311
Satellite: METEOR-M
Catalog number: 35865
Epoch time: 14299.18626300
Element set: 21
Inclination: 098.5349 deg
RA of node: 342.5286 deg
Eccentricity: 0.0003513
Arg of perigee: 086.4156 deg
Mean anomaly: 314.6572 deg
Mean motion: 14.21942082 rev/day
Decay rate: 1.57e-06 rev/day^2
Epoch rev: 26495
Checksum: 301
Satellite: RS-38
Catalog number: 35869
Epoch time: 14299.19601730
Element set: 927
Inclination: 098.5270 deg
RA of node: 342.2766 deg
Eccentricity: 0.0005611
Arg of perigee: 081.1389 deg
Mean anomaly: 324.8345 deg
Mean motion: 14.22236777 rev/day
Decay rate: 8.8e-07 rev/day^2
Epoch rev: 26499
Checksum: 343
Satellite: JUGNU
Catalog number: 37839
Epoch time: 14298.80841455
Element set: 722
Inclination: 019.9601 deg
RA of node: 183.2544 deg
Eccentricity: 0.0018787
Arg of perigee: 344.3573 deg
Mean anomaly: 080.8416 deg
Mean motion: 14.12356867 rev/day
Decay rate: 6.63e-06 rev/day^2
Epoch rev: 15704
Checksum: 324
Satellite: SRMSAT
Catalog number: 37841
Epoch time: 14299.14415088
Element set: 725
Inclination: 019.9708 deg
RA of node: 203.1757 deg
Eccentricity: 0.0011812
Arg of perigee: 282.2805 deg
Mean anomaly: 222.1654 deg
Mean motion: 14.10389905 rev/day
Decay rate: 4.95e-06 rev/day^2
Epoch rev: 15687
Checksum: 308
Satellite: RAX-2
Catalog number: 37853
Epoch time: 14299.14152622
Element set: 945
Inclination: 101.7032 deg
RA of node: 031.3456 deg
Eccentricity: 0.0210801
Arg of perigee: 037.4504 deg
Mean anomaly: 026.8094 deg
Mean motion: 14.91271915 rev/day
Decay rate: 1.1082e-04 rev/day^2
Epoch rev: 16216
Checksum: 270
Satellite: AUBIESAT
Catalog number: 37854
Epoch time: 14298.93622174
Element set: 944
Inclination: 101.7081 deg
RA of node: 033.3840 deg
Eccentricity: 0.0207904
Arg of perigee: 034.4244 deg
Mean anomaly: 018.9216 deg
Mean motion: 14.92789352 rev/day
Decay rate: 1.1683e-04 rev/day^2
Epoch rev: 16220
Checksum: 298
